Location: Waco, TX
(31.5480°N, 97.1670°W)
Time: 13:44:16
(UTC-05:00)

ISS - Pass Details

Date: 13 May 2021
Orbit: 417 x 422 km, 51.6° (Epoch: 15 May)

Event Time Altitude Azimuth Distance (km) Brightness Sun altitude
Rises 06:03:14 0° 319° (NW) 2,367 -0.1 -6.7°
Reaches altitude 10° 06:05:21 10° 324° (NW) 1,501 -1.0 -6.3°
Maximum altitude 06:08:40 56° 43° (NE) 504 -2.9 -5.6°
Drops below altitude 10° 06:11:59 10° 123° (ESE) 1,495 -0.5 -5.0°
Sets 06:14:06 0° 128° (SE) 2,356 0.5 -4.6°
